TimeCST,TemperatureF,Dew PointF,Humidity,Sea Level PressureIn,VisibilityMPH,Wind Direction,Wind SpeedMPH,Gust SpeedMPH,PrecipitationIn,Events,Conditions,WindDirDegrees,DateUTC
12:34 AM,12.2,6.8,79,30.04,9.0,NW,12.7,-,0.00,Snow,Light Snow,310,2013-01-13 06:34:00
12:53 AM,12.9,5.0,71,30.10,9.0,NW,18.4,21.9,0.00,,Overcast,310,2013-01-13 06:53:00
1:53 AM,10.9,3.0,70,30.13,10.0,NW,10.4,-,N/A,,Partly Cloudy,310,2013-01-13 07:53:00
2:53 AM,10.0,1.9,70,30.11,10.0,NW,9.2,-,N/A,,Clear,320,2013-01-13 08:53:00
3:53 AM,9.0,1.9,73,30.13,10.0,NW,8.1,-,N/A,,Clear,310,2013-01-13 09:53:00
4:53 AM,9.0,3.0,77,30.14,10.0,WNW,8.1,-,N/A,,Mostly Cloudy,290,2013-01-13 10:53:00
5:53 AM,9.0,1.9,73,30.15,9.0,WNW,10.4,-,N/A,,Overcast,290,2013-01-13 11:53:00
6:53 AM,9.0,3.9,80,30.17,6.0,NW,8.1,-,0.00,,Haze,320,2013-01-13 12:53:00
7:53 AM,8.1,1.9,76,30.20,10.0,NW,15.0,-,0.00,,Overcast,310,2013-01-13 13:53:00
8:23 AM,8.6,1.4,73,30.17,10.0,WNW,12.7,-,N/A,,Scattered Clouds,300,2013-01-13 14:23:00
8:53 AM,8.1,1.0,73,30.22,10.0,NW,15.0,-,N/A,,Partly Cloudy,310,2013-01-13 14:53:00
9:53 AM,9.0,-0.0,67,30.22,10.0,WNW,11.5,-,N/A,,Scattered Clouds,300,2013-01-13 15:53:00
10:53 AM,10.9,1.9,67,30.21,10.0,WNW,11.5,20.7,N/A,,Partly Cloudy,300,2013-01-13 16:53:00
11:18 AM,10.4,1.4,67,30.16,10.0,WNW,12.7,-,N/A,,Mostly Cloudy,290,2013-01-13 17:18:00
11:53 AM,10.9,3.0,70,30.21,10.0,West,17.3,21.9,N/A,,Overcast,280,2013-01-13 17:53:00
12:53 PM,14.0,3.9,64,30.19,10.0,NW,16.1,20.7,N/A,,Overcast,310,2013-01-13 18:53:00
1:53 PM,15.1,6.1,68,30.20,10.0,WNW,11.5,-,N/A,,Overcast,290,2013-01-13 19:53:00
2:53 PM,16.0,7.0,68,30.22,10.0,West,11.5,-,N/A,,Overcast,280,2013-01-13 20:53:00
3:53 PM,17.1,8.1,68,30.24,10.0,WNW,16.1,-,N/A,,Overcast,290,2013-01-13 21:53:00
4:53 PM,17.1,7.0,65,30.25,10.0,WNW,13.8,-,N/A,,Overcast,290,2013-01-13 22:53:00
5:29 PM,15.8,6.8,68,30.21,10.0,WNW,13.8,17.3,N/A,,Partly Cloudy,290,2013-01-13 23:29:00
5:53 PM,16.0,6.1,65,30.27,10.0,WNW,9.2,-,N/A,,Clear,290,2013-01-13 23:53:00
6:53 PM,14.0,5.0,67,30.28,10.0,WNW,8.1,-,N/A,,Clear,290,2013-01-14 00:53:00
7:53 PM,14.0,3.9,64,30.31,10.0,West,8.1,-,N/A,,Clear,280,2013-01-14 01:53:00
8:53 PM,12.9,5.0,71,30.32,10.0,West,6.9,-,N/A,,Clear,280,2013-01-14 02:53:00
9:53 PM,12.0,3.9,70,30.33,10.0,West,5.8,-,N/A,,Clear,280,2013-01-14 03:53:00
10:53 PM,10.9,3.9,73,30.35,10.0,West,5.8,-,N/A,,Clear,260,2013-01-14 04:53:00